| time (UTC) | temp F | wind direction | speed knots | gust knots | rain 1hr in | rain 24hr in | rain mn in | humidity % | barometer mb |
| 20260901123021 | 69 | 75 | 0.0 | 0.0 | 0.00 | 0.00 | 0.00 | 90 | 1014.3 |
| 20260901121514 | 70 | 75 | 0.0 | 0.0 | 0.00 | 0.00 | 0.00 | 89 | 1014.2 |
| 20260901120007 | 70 | 75 | 0.0 | 0.0 | 0.00 | 0.00 | 0.00 | 89 | 1014.2 |
| 20260901114505 | 71 | 75 | 0.0 | 0.0 | 0.00 | 0.00 | 0.00 | 88 | 1014.3 |
| 20260901113003 | 71 | 75 | 0.0 | 0.0 | 0.00 | 0.00 | 0.00 | 87 | 1014.2 |
| 20260901111501 | 72 | 75 | 0.0 | 0.0 | 0.00 | 0.00 | 0.00 | 88 | 1014.1 |
| 20260901110100 | 73 | 75 | 0.0 | 0.0 | 0.00 | 0.00 | 0.00 | 90 | 1013.9 |
| 20260901104602 | 72 | 75 | 0.0 | 0.0 | 0.00 | 0.00 | 0.00 | 86 | 1013.9 |
| 20260901103101 | 72 | 75 | 0.0 | 0.0 | 0.00 | 0.00 | 0.00 | 86 | 1014.0 |
| 20260901101607 | 72 | 75 | 0.0 | 0.0 | 0.00 | 0.00 | 0.00 | 85 | 1014.1 |
| 20260901100106 | 73 | 75 | 0.0 | 0.0 | 0.00 | 0.00 | 0.00 | 84 | 1014.0 |
| 20260901094554 | 73 | 94 | 0.0 | 0.0 | 0.00 | 0.00 | 0.00 | 83 | 1014.0 |
| 20260901093051 | 75 | 94 | 0.0 | 0.0 | 0.00 | 0.00 | 0.00 | 82 | 1014.1 |
| 20260901091550 | 74 | 71 | 0.0 | 0.9 | 0.00 | 0.00 | 0.00 | 81 | 1014.3 |
| 20260901090046 | 75 | 92 | 0.0 | 0.9 | 0.00 | 0.00 | 0.00 | 79 | 1014.2 |
| 20260901084552 | 75 | 109 | 0.0 | 1.7 | 0.00 | 0.00 | 0.00 | 78 | 1014.2 |
| 20260901083044 | 76 | 89 | 0.9 | 1.7 | 0.00 | 0.00 | 0.00 | 77 | 1014.1 |
| 20260901081543 | 76 | 83 | 0.0 | 2.6 | 0.00 | 0.00 | 0.00 | 76 | 1014.1 |
| 20260901080050 | 76 | 78 | 0.0 | 0.9 | 0.00 | 0.00 | 0.00 | 74 | 1014.1 |
| 20260901074537 | 77 | 78 | 0.0 | 2.6 | 0.00 | 0.00 | 0.00 | 73 | 1014.0 |
| 20260901073045 | 77 | 52 | 1.7 | 4.3 | 0.00 | 0.00 | 0.00 | 72 | 1014.0 |
| 20260901071533 | 78 | 109 | 1.7 | 3.5 | 0.00 | 0.00 | 0.00 | 70 | 1014.0 |
| 20260901070030 | 78 | 80 | 1.7 | 3.5 | 0.00 | 0.00 | 0.00 | 69 | 1013.9 |
| 20260901064529 | 79 | 79 | 0.0 | 3.5 | 0.00 | 0.00 | 0.00 | 68 | 1013.8 |
| 20260901063026 | 80 | 104 | 1.7 | 3.5 | 0.00 | 0.00 | 0.00 | 67 | 1013.7 |
| 20260901061523 | 80 | 100 | 1.7 | 5.2 | 0.00 | 0.00 | 0.00 | 67 | 1013.6 |
| 20260901060035 | 81 | 151 | 2.6 | 7.0 | 0.00 | 0.00 | 0.00 | 66 | 1013.4 |
| 20260901054518 | 82 | 96 | 2.6 | 5.2 | 0.00 | 0.00 | 0.00 | 67 | 1013.3 |
| 20260901053015 | 82 | 171 | 1.7 | 6.1 | 0.00 | 0.00 | 0.00 | 67 | 1013.2 |
| 20260901051514 | 82 | 109 | 1.7 | 6.1 | 0.00 | 0.00 | 0.00 | 67 | 1013.1 |
| 20260901050012 | 82 | 111 | 1.7 | 4.3 | 0.00 | 0.00 | 0.00 | 66 | 1012.9 |
| 20260901044511 | 83 | 153 | 0.0 | 4.3 | 0.00 | 0.00 | 0.00 | 65 | 1012.9 |
| 20260901043010 | 83 | 97 | 1.7 | 6.1 | 0.00 | 0.00 | 0.00 | 65 | 1012.9 |
| 20260901041509 | 83 | 91 | 1.7 | 5.2 | 0.00 | 0.00 | 0.00 | 64 | 1012.8 |
| 20260901040009 | 83 | 121 | 1.7 | 4.3 | 0.00 | 0.00 | 0.00 | 64 | 1012.8 |
| 20260901034508 | 83 | 89 | 1.7 | 4.3 | 0.00 | 0.00 | 0.00 | 63 | 1012.7 |
| 20260901033007 | 83 | 101 | 2.6 | 6.1 | 0.00 | 0.00 | 0.00 | 61 | 1012.5 |
| 20260901031507 | 83 | 110 | 1.7 | 4.3 | 0.00 | 0.00 | 0.00 | 58 | 1012.4 |
| 20260901030005 | 84 | 105 | 0.9 | 5.2 | 0.00 | 0.00 | 0.00 | 56 | 1012.2 |
| 20260901024504 | 85 | 79 | 2.6 | 5.2 | 0.00 | 0.00 | 0.00 | 54 | 1012.1 |
| 20260901023005 | 83 | 80 | 0.9 | 2.6 | 0.00 | 0.00 | 0.00 | 55 | 1011.9 |
| 20260901021508 | 84 | 85 | 0.0 | 1.7 | 0.00 | 0.00 | 0.00 | 55 | 1011.5 |
| 20260901020002 | 85 | 82 | 0.0 | 0.9 | 0.00 | 0.00 | 0.00 | 54 | 1011.4 |
| 20260901014503 | 86 | 73 | 0.0 | 1.7 | 0.00 | 0.00 | 0.00 | 53 | 1011.2 |
| 20260901013001 | 87 | 78 | 0.9 | 1.7 | 0.00 | 0.00 | 0.00 | 51 | 1011.3 |
| 20260901011502 | 88 | 74 | 0.9 | 3.5 | 0.00 | 0.00 | 0.00 | 50 | 1011.2 |
| 20260901010115 | 89 | 93 | 1.7 | 3.5 | 0.00 | 0.00 | 0.00 | 49 | 1011.0 |
| 20260901004600 | 90 | 108 | 1.7 | 5.2 | 0.00 | 0.00 | 0.00 | 47 | 1010.9 |
| 20260901003104 | 92 | 118 | 2.6 | 5.2 | 0.00 | 0.00 | 0.00 | 45 | 1010.8 |
| 20260901001559 | 93 | 76 | 2.6 | 6.1 | 0.00 | 0.00 | 0.00 | 44 | 1010.6 |
| 20260901000057 | 94 | 123 | 1.7 | 5.2 | 0.00 | 0.00 | 0.00 | 44 | 1010.6 |
| 20260831234558 | 94 | 99 | 1.7 | 6.1 | 0.00 | 0.00 | 0.00 | 41 | 1010.5 |
| 20260831233104 | 94 | 113 | 2.6 | 7.0 | 0.00 | 0.00 | 0.00 | 41 | 1010.5 |
| 20260831231558 | 95 | 210 | 2.6 | 6.1 | 0.00 | 0.00 | 0.00 | 40 | 1010.4 |
| 20260831230110 | 95 | 91 | 0.9 | 8.7 | 0.00 | 0.00 | 0.00 | 42 | 1010.6 |
| 20260831224554 | 95 | 109 | 2.6 | 7.0 | 0.00 | 0.00 | 0.00 | 40 | 1010.6 |
| 20260831223103 | 95 | 118 | 2.6 | 9.6 | 0.00 | 0.00 | 0.00 | 42 | 1010.7 |
| 20260831221556 | 95 | 130 | 3.5 | 9.6 | 0.00 | 0.00 | 0.00 | 42 | 1010.8 |
| 20260831220048 | 95 | 143 | 3.5 | 12.2 | 0.00 | 0.00 | 0.00 | 41 | 1011.1 |
| 20260831214553 | 97 | 110 | 1.7 | 7.0 | 0.00 | 0.00 | 0.00 | 40 | 1011.2 |
| 20260831213046 | 96 | 259 | 2.6 | 5.2 | 0.00 | 0.00 | 0.00 | 40 | 1011.4 |
| 20260831211542 | 95 | 132 | 3.5 | 7.8 | 0.00 | 0.00 | 0.00 | 43 | 1011.6 |
| 20260831210039 | 94 | 122 | 1.7 | 9.6 | 0.00 | 0.00 | 0.00 | 43 | 1011.9 |
| 20260831204538 | 95 | 162 | 1.7 | 7.0 | 0.00 | 0.00 | 0.00 | 43 | 1012.1 |
| 20260831203037 | 94 | 128 | 2.6 | 8.7 | 0.00 | 0.00 | 0.00 | 44 | 1012.3 |
| 20260831201534 | 94 | 180 | 2.6 | 7.8 | 0.00 | 0.00 | 0.00 | 45 | 1012.6 |
| 20260831200031 | 95 | 98 | 2.6 | 7.8 | 0.00 | 0.00 | 0.00 | 42 | 1012.8 |
| 20260831194528 | 95 | 271 | 1.7 | 7.0 | 0.00 | 0.00 | 0.00 | 46 | 1013.1 |
| 20260831193034 | 94 | 109 | 3.5 | 7.0 | 0.00 | 0.00 | 0.00 | 43 | 1013.4 |
| 20260831191529 | 95 | 167 | 3.5 | 12.2 | 0.00 | 0.00 | 0.00 | 44 | 1013.4 |
| 20260831190025 | 93 | 251 | 3.5 | 7.8 | 0.00 | 0.00 | 0.00 | 45 | 1013.4 |
| 20260831184521 | 93 | 133 | 2.6 | 8.7 | 0.00 | 0.00 | 0.00 | 45 | 1013.7 |
| 20260831183020 | 93 | 113 | 4.3 | 12.2 | 0.00 | 0.00 | 0.00 | 46 | 1013.8 |
| 20260831181519 | 93 | 154 | 3.5 | 7.8 | 0.00 | 0.00 | 0.00 | 48 | 1014.0 |
| 20260831180020 | 93 | 177 | 1.7 | 9.6 | 0.00 | 0.00 | 0.00 | 48 | 1014.1 |
| 20260831174517 | 92 | 73 | 3.5 | 7.0 | 0.00 | 0.00 | 0.00 | 49 | 1014.2 |
| 20260831173016 | 91 | 170 | 2.6 | 8.7 | 0.00 | 0.00 | 0.00 | 50 | 1014.3 |
| 20260831171513 | 91 | 189 | 4.3 | 8.7 | 0.00 | 0.00 | 0.00 | 51 | 1014.4 |
| 20260831170008 | 89 | 234 | 2.6 | 7.8 | 0.00 | 0.00 | 0.00 | 53 | 1014.4 |
| 20260831164559 | 89 | 162 | 1.7 | 7.0 | 0.00 | 0.00 | 0.00 | 53 | 1014.4 |
| 20260831163058 | 88 | 138 | 3.5 | 9.6 | 0.00 | 0.00 | 0.00 | 54 | 1014.6 |
| 20260831161556 | 87 | 253 | 3.5 | 7.0 | 0.00 | 0.00 | 0.00 | 58 | 1014.6 |
| 20260831160052 | 88 | 142 | 2.6 | 6.1 | 0.00 | 0.00 | 0.00 | 58 | 1014.6 |
| 20260831154552 | 86 | 122 | 2.6 | 7.0 | 0.00 | 0.00 | 0.00 | 62 | 1014.6 |
| 20260831153049 | 85 | 209 | 4.3 | 8.7 | 0.00 | 0.00 | 0.00 | 64 | 1014.5 |
| 20260831151544 | 84 | 207 | 2.6 | 8.7 | 0.00 | 0.00 | 0.00 | 68 | 1014.3 |
| 20260831150041 | 83 | 166 | 3.5 | 7.8 | 0.00 | 0.00 | 0.00 | 70 | 1014.2 |
| 20260831144538 | 82 | 134 | 1.7 | 7.0 | 0.00 | 0.00 | 0.00 | 73 | 1014.3 |
| 20260831143036 | 81 | 222 | 1.7 | 7.8 | 0.00 | 0.00 | 0.00 | 77 | 1014.2 |
| 20260831141537 | 80 | 191 | 1.7 | 5.2 | 0.00 | 0.00 | 0.00 | 81 | 1014.2 |
| 20260831140039 | 78 | 188 | 1.7 | 5.2 | 0.00 | 0.00 | 0.00 | 84 | 1014.1 |
| 20260831134537 | 77 | 158 | 0.9 | 4.3 | 0.00 | 0.00 | 0.00 | 86 | 1014.3 |
| 20260831133033 | 76 | 156 | 0.0 | 0.0 | 0.00 | 0.00 | 0.00 | 89 | 1014.2 |
| 20260831131530 | 74 | 162 | 0.0 | 0.0 | 0.00 | 0.00 | 0.00 | 92 | 1014.2 |
| 20260831130027 | 72 | 87 | 0.0 | 0.0 | 0.00 | 0.00 | 0.00 | 91 | 1014.1 |
| 20260831124526 | 73 | 87 | 0.0 | 0.0 | 0.00 | 0.00 | 0.00 | 90 | 1014.0 |